Wind_Speed
23 24 24 24 24 25 25 25 25 25 25 25 26 26 26 25 25 24 24 24 24 24 25 24 24 24 24 24 24 24 24 24 23 23 23 23 24 24 23 23 22 22 23
25 25 25 26 26 26 26 26 26 26 27 27 27 27 27 26 25 24 24 24 24 25 25 25 26 26 27 27 26 25 25 25 25 25 25 25 25 25 24 24 24 24 24
26 26 27 27 27 27 28 28 28 28 28 28 28 28 28 27 27 26 25 25 25 25 26 26 26 27 27 27 27 27 26 26 26 26 25 26 25 25 25 25 25 25 25
27 27 28 28 28 29 29 29 30 29 29 29 29 29 29 28 28 28 27 26 26 26 26 26 27 28 28 28 28 28 28 28 28 27 27 26 26 26 26 26 26 26 26
27 28 29 29 30 30 30 30 29 29 29 29 29 29 29 28 28 29 29 29 29 29 28 28 29 29 29 29 29 30 29 29 29 28 28 27 27 27 27 27 27 27 27
28 29 30 30 31 31 31 30 30 30 30 30 30 29 29 29 29 29 30 30 30 30 30 30 30 30 30 30 30 30 30 30 30 29 29 28 28 27 27 28 28 28 28
30 31 32 32 32 32 32 32 32 32 32 31 31 30 30 30 30 31 31 31 31 31 31 31 31 31 31 31 31 31 31 31 31 31 30 30 29 29 28 28 28 28 28
32 32 33 33 33 33 33 33 33 33 33 33 32 32 31 31 32 32 32 33 33 32 32 31 32 32 32 32 31 32 31 31 31 31 31 30 30 29 29 29 28 27 28
32 32 33 33 33 34 34 34 34 34 34 34 34 33 33 32 32 32 33 33 34 34 33 33 32 32 32 33 33 33 32 32 32 32 31 31 30 29 28 29 29 28 27
33 32 33 33 34 34 34 34 34 34 35 35 35 35 34 34 34 33 33 33 33 34 34 33 33 33 33 33 34 34 34 33 32 32 31 30 30 29 29 30 30 30 29
33 33 34 35 35 34 34 34 34 35 35 35 36 36 35 35 35 34 34 34 34 34 34 34 33 33 34 35 35 36 35 34 33 33 32 31 30 29 29 30 30 30 30
34 34 34 35 35 35 35 35 35 35 35 35 35 36 35 35 35 35 35 35 34 34 34 34 34 34 35 35 35 36 35 34 34 34 33 32 32 31 30 30 30 30 29
36 36 36 36 35 35 36 36 36 36 36 36 36 36 36 36 36 36 36 36 35 35 34 34 34 34 34 34 34 34 33 33 33 33 32 31 31 30 30 30 30 31 30
36 36 35 35 36 36 36 36 37 36 36 36 35 35 35 35 35 35 36 36 35 34 34 33 34 34 34 34 34 33 33 32 32 32 31 30 30 29 29 29 30 30 29
35 35 36 36 36 36 36 36 36 36 36 36 35 35 35 34 34 34 35 34 34 33 33 32 33 32 32 32 33 33 32 32 32 32 32 31 31 30 30 29 28 28 28
35 35 36 37 37 37 37 36 36 36 36 36 36 36 35 34 33 33 33 33 32 32 32 31 31 31 30 30 31 32 31 31 31 32 32 32 31 30 30 30 30 29 28
35 36 37 37 37 37 37 36 35 34 35 36 35 35 34 33 33 33 31 31 31 31 31 30 30 29 29 29 30 30 30 29 30 31 31 31 31 31 31 30 30 29 29
35 36 36 36 37 37 37 36 35 33 32 33 33 33 32 32 32 32 32 31 30 30 30 29 28 28 28 29 29 29 29 28 29 30 30 30 30 30 30 31 30 30 29
35 35 35 35 35 35 35 35 34 33 31 30 29 29 30 30 30 30 30 30 29 29 28 28 28 28 28 28 28 28 28 29 29 29 29 29 29 29 29 29 29 29 29
34 35 35 34 34 34 35 34 33 32 31 31 29 29 28 28 29 29 29 29 28 28 28 28 28 28 28 28 28 28 28 29 30 30 29 29 29 29 28 28 28 29 29
34 34 34 34 34 34 33 33 32 31 31 30 30 29 29 28 28 27 27 27 27 27 26 27 28 28 28 29 28 28 28 29 29 29 29 30 30 29 29 28 28 28 29
33 33 33 33 32 32 32 31 31 30 30 30 30 29 29 28 27 26 26 26 26 25 26 26 27 27 27 28 28 28 28 28 27 28 29 30 30 29 28 28 27 28 28
33 33 33 32 32 31 30 30 30 29 29 29 28 28 27 27 26 26 25 25 24 24 25 25 26 26 26 26 26 27 27 27 26 27 27 28 28 29 29 28 28 28 28
32 32 32 32 31 30 29 29 29 28 28 28 28 27 27 27 26 25 25 24 24 24 24 24 24 24 24 24 25 25 24 25 26 26 27 27 27 27 27 27 27 26 26
31 31 30 30 30 29 28 28 27 27 26 26 26 26 25 26 26 25 24 24 24 24 24 24 24 23 23 23 24 24 24 24 24 24 25 26 26 27 27 27 27 26 26
30 30 29 28 28 28 27 26 26 25 25 25 25 24 24 24 24 23 24 24 24 23 23 23 23 22 22 22 22 22 23 23 23 24 24 25 25 26 26 26 26 26 26
Wind_Direction
286 289 291 292 292 291 292 292 292 291 291 291 291 290 288 286 284 281 279 278 277 274 273 274 274 272 273 276 277 277 277 277 276 276 276 277 278 278 277 276 276 276 276
285 289 290 291 291 291 291 292 291 291 291 291 290 289 287 285 283 280 278 278 278 277 275 274 274 273 274 275 277 278 278 278 277 276 276 276 277 277 278 277 276 276 275
285 288 290 290 290 291 290 289 289 289 290 291 291 289 288 285 282 281 279 278 277 277 276 275 274 274 274 275 276 278 277 278 279 278 277 276 277 276 277 277 277 277 278
285 287 289 290 290 290 290 290 289 289 289 290 290 289 287 285 283 282 281 279 277 277 276 276 276 276 276 275 275 276 277 277 278 278 279 278 277 277 275 275 276 277 277
286 288 289 288 288 289 289 289 289 290 290 291 291 291 288 285 283 282 281 280 278 277 277 277 276 277 276 275 275 276 276 277 277 278 277 277 276 275 274 274 275 277 277
286 288 289 288 289 290 290 289 289 289 289 290 291 290 288 286 283 281 280 281 279 277 277 277 277 276 276 275 274 274 274 275 275 275 275 276 275 276 275 274 274 275 275
286 287 288 287 289 290 288 287 288 288 288 288 288 289 289 286 283 281 280 280 280 277 277 278 277 276 276 275 273 273 273 274 274 274 273 274 274 273 274 275 275 275 275
284 286 288 288 288 288 288 288 288 287 287 287 287 287 289 288 285 283 280 279 279 278 278 278 278 277 276 276 274 272 272 273 273 273 272 271 272 272 272 274 274 274 274
283 285 287 288 289 289 289 289 288 287 286 287 286 286 286 287 286 284 283 281 280 278 277 276 276 276 276 275 274 273 272 272 271 271 270 269 270 270 272 272 271 271 273
283 284 286 288 289 289 289 288 288 288 287 286 285 286 285 285 285 285 285 283 281 279 277 276 275 274 275 274 272 272 272 272 270 269 268 267 268 269 269 270 269 270 272
283 285 285 286 288 288 289 288 288 289 289 288 286 285 285 285 284 284 284 285 283 281 278 277 276 275 274 273 272 272 272 270 269 267 266 266 266 267 268 269 269 270 272
283 284 285 285 286 286 287 288 288 288 289 290 288 287 285 285 284 283 284 284 284 282 280 277 276 276 275 273 272 271 270 268 267 265 265 265 266 267 268 269 270 271 272
282 283 284 285 286 286 287 288 288 288 289 289 288 287 287 285 283 283 284 284 283 281 279 278 276 275 275 274 272 270 269 267 267 266 265 264 264 265 267 267 267 269 271
283 283 284 286 286 286 288 289 290 289 288 288 286 288 287 286 285 284 283 283 282 280 279 277 276 274 274 273 271 269 268 267 265 265 264 263 263 263 265 265 266 267 267
285 285 285 286 287 287 288 289 290 290 289 288 287 288 288 288 287 285 283 283 282 281 279 277 274 273 273 271 269 267 266 265 265 264 263 262 263 263 263 264 265 265 265
287 287 287 287 287 288 288 289 290 290 290 289 288 287 287 287 287 285 283 282 281 281 280 278 274 271 270 269 268 267 265 264 264 264 262 261 262 263 263 264 264 263 264
290 290 289 289 289 288 288 288 288 289 289 289 288 287 286 286 286 285 284 284 283 281 280 278 274 270 268 268 267 267 264 263 263 262 262 260 260 262 263 262 263 263 263
292 292 292 292 291 290 288 286 287 289 289 288 287 286 286 286 286 286 284 283 282 281 278 277 274 271 269 268 268 267 264 263 263 262 261 261 261 261 261 260 261 262 263
293 293 294 294 293 292 290 287 286 286 287 288 287 287 286 287 287 285 284 282 282 281 276 274 272 270 269 269 269 267 265 263 262 261 261 260 260 260 260 260 261 262 263
294 294 294 294 295 294 292 289 286 285 285 286 286 286 287 287 286 284 283 282 281 280 277 274 273 272 271 270 269 269 266 264 263 261 261 260 259 260 260 260 261 262 262
295 295 295 295 296 295 294 290 287 285 285 286 285 286 286 286 285 283 283 281 280 278 277 276 274 272 272 271 269 268 267 266 264 262 261 261 262 261 259 259 261 262 262
295 295 295 295 296 296 293 290 288 286 287 286 285 285 285 285 284 282 282 282 280 278 277 277 276 274 273 269 266 264 264 265 264 263 262 262 263 263 260 259 260 262 263
294 294 294 295 296 296 294 291 289 287 287 287 286 285 284 283 282 281 279 280 280 279 280 280 279 276 274 270 266 264 262 263 263 264 264 263 263 263 263 262 262 264 264
293 294 295 295 295 295 295 293 291 288 285 285 286 285 284 283 282 281 280 279 279 280 281 283 281 278 276 275 271 267 265 264 265 266 265 264 265 265 264 264 265 266 266
294 294 295 296 297 296 295 293 292 290 288 286 286 287 286 284 282 281 281 280 280 280 281 282 280 277 276 275 273 269 268 267 267 266 264 264 265 265 264 264 265 266 267
294 294 294 295 297 296 293 293 292 290 289 287 287 287 286 284 281 279 280 281 281 280 281 280 277 275 274 274 273 270 269 268 269 268 266 265 265 265 264 264 265 266 265
Height
5798 5797 5796 5794 5792 5790 5788 5787 5785 5783 5780 5778 5777 5775 5773 5772 5771 5770 5770 5770 5770 5770 5770 5771 5771 5772 5772 5772 5772 5772 5772 5772 5773 5773 5773 5773 5773 5774 5774 5774 5774 5774 5773
5792 5791 5790 5788 5786 5784 5782 5780 5779 5777 5774 5772 5770 5768 5766 5765 5764 5763 5763 5763 5764 5764 5763 5764 5764 5765 5765 5765 5766 5766 5765 5765 5766 5766 5766 5766 5766 5767 5767 5767 5767 5767 5766
5786 5785 5783 5781 5779 5777 5775 5774 5772 5770 5768 5765 5763 5761 5759 5758 5757 5756 5756 5756 5756 5756 5756 5756 5757 5757 5758 5758 5758 5758 5758 5758 5758 5759 5759 5759 5759 5759 5759 5759 5759 5759 5759
5779 5777 5776 5774 5772 5770 5768 5766 5764 5762 5760 5758 5756 5753 5752 5750 5749 5749 5749 5749 5749 5749 5749 5749 5749 5749 5750 5750 5751 5751 5751 5751 5751 5751 5751 5751 5751 5751 5752 5752 5752 5752 5751
5771 5770 5768 5766 5765 5762 5760 5758 5756 5754 5752 5750 5747 5745 5744 5742 5742 5741 5741 5741 5741 5741 5741 5741 5741 5741 5741 5742 5742 5743 5743 5743 5743 5743 5743 5743 5743 5744 5744 5744 5744 5744 5743
5763 5762 5760 5758 5756 5754 5752 5750 5748 5746 5744 5741 5739 5737 5736 5734 5733 5733 5732 5732 5732 5732 5732 5732 5732 5733 5733 5733 5733 5733 5734 5734 5734 5735 5735 5735 5735 5735 5735 5735 5736 5736 5736
5755 5754 5752 5750 5748 5746 5743 5741 5739 5737 5735 5733 5731 5729 5727 5726 5724 5724 5723 5723 5723 5723 5723 5723 5723 5723 5723 5724 5724 5724 5724 5725 5725 5725 5726 5726 5726 5727 5727 5727 5727 5727 5727
5746 5745 5743 5740 5738 5736 5734 5732 5730 5728 5726 5724 5722 5720 5718 5717 5715 5714 5713 5713 5713 5713 5713 5713 5713 5713 5713 5714 5714 5714 5715 5715 5715 5716 5716 5716 5717 5717 5717 5718 5718 5718 5718
5737 5735 5733 5731 5729 5727 5724 5722 5720 5718 5716 5714 5713 5711 5709 5707 5706 5704 5703 5703 5702 5703 5703 5702 5702 5703 5704 5704 5704 5704 5705 5705 5705 5706 5706 5706 5707 5707 5707 5708 5709 5709 5709
5727 5725 5724 5721 5719 5717 5715 5712 5710 5708 5706 5704 5703 5701 5700 5698 5696 5694 5693 5692 5692 5692 5692 5692 5692 5693 5693 5693 5693 5693 5694 5695 5695 5696 5696 5696 5696 5697 5698 5698 5699 5699 5700
5717 5715 5714 5712 5709 5707 5704 5702 5700 5698 5696 5694 5693 5691 5690 5688 5686 5685 5683 5682 5681 5681 5681 5682 5682 5681 5682 5682 5682 5682 5683 5683 5684 5685 5686 5686 5687 5687 5688 5689 5689 5689 5690
5708 5706 5704 5702 5699 5697 5695 5692 5690 5688 5686 5684 5682 5681 5679 5678 5676 5674 5673 5671 5670 5670 5670 5671 5671 5670 5670 5670 5670 5671 5671 5672 5673 5674 5675 5676 5677 5678 5678 5679 5679 5679 5680
5697 5695 5693 5691 5689 5687 5685 5682 5680 5678 5676 5674 5672 5670 5669 5667 5665 5664 5662 5661 5659 5659 5659 5659 5659 5659 5658 5658 5659 5659 5660 5660 5662 5663 5664 5666 5667 5667 5668 5668 5669 5670 5671
5687 5685 5683 5681 5679 5677 5674 5672 5670 5667 5665 5663 5661 5660 5658 5656 5654 5653 5651 5649 5648 5647 5647 5647 5647 5647 5647 5647 5647 5648 5649 5650 5651 5652 5653 5655 5656 5657 5657 5658 5659 5660 5661
5677 5674 5673 5671 5669 5666 5664 5662 5659 5656 5654 5651 5650 5648 5647 5646 5643 5641 5639 5639 5637 5637 5636 5636 5636 5636 5636 5636 5637 5638 5639 5639 5640 5642 5643 5644 5646 5647 5648 5648 5649 5650 5651
5666 5664 5662 5660 5657 5655 5653 5652 5649 5646 5643 5640 5638 5637 5635 5634 5632 5630 5629 5628 5627 5626 5626 5625 5625 5625 5626 5626 5627 5628 5628 5629 5630 5632 5633 5634 5636 5636 5638 5639 5639 5641 5642
5656 5653 5651 5649 5646 5644 5642 5640 5638 5636 5632 5630 5628 5626 5624 5623 5621 5620 5618 5617 5617 5616 5615 5615 5615 5615 5616 5616 5617 5617 5618 5619 5620 5622 5623 5624 5625 5626 5627 5629 5630 5631 5632
5645 5643 5640 5638 5635 5633 5631 5629 5627 5624 5622 5620 5617 5615 5614 5612 5611 5610 5609 5608 5608 5607 5606 5605 5605 5605 5606 5606 5607 5607 5608 5609 5610 5611 5613 5614 5615 5616 5617 5619 5620 5621 5622
5635 5633 5630 5627 5624 5622 5619 5617 5615 5613 5612 5610 5608 5606 5604 5603 5602 5601 5599 5599 5598 5597 5597 5596 5596 5596 5596 5597 5597 5598 5599 5600 5601 5602 5603 5604 5605 5607 5608 5609 5610 5611 5613
5625 5623 5620 5617 5614 5612 5609 5607 5605 5603 5602 5600 5598 5596 5595 5594 5593 5592 5590 5589 5589 5588 5588 5587 5587 5587 5587 5587 5588 5588 5589 5590 5591 5593 5594 5595 5596 5597 5599 5599 5600 5602 5603
5616 5613 5610 5607 5605 5602 5599 5597 5595 5593 5592 5590 5589 5587 5585 5584 5583 5582 5581 5580 5580 5579 5579 5578 5578 5578 5578 5578 5578 5579 5580 5581 5582 5583 5584 5585 5586 5588 5589 5590 5591 5593 5594
5606 5603 5601 5598 5596 5593 5590 5587 5585 5584 5582 5581 5579 5578 5576 5575 5574 5573 5572 5571 5571 5570 5570 5569 5569 5569 5569 5569 5569 5570 5571 5572 5573 5574 5575 5576 5577 5578 5580 5581 5582 5583 5584
5596 5594 5591 5589 5586 5583 5581 5578 5576 5575 5573 5572 5570 5569 5568 5566 5565 5565 5564 5563 5563 5562 5561 5561 5560 5560 5560 5560 5560 5561 5562 5563 5564 5565 5566 5567 5568 5569 5570 5571 5573 5574 5575
5587 5585 5582 5580 5577 5575 5572 5570 5568 5566 5564 5563 5561 5560 5559 5558 5557 5557 5556 5555 5555 5554 5553 5553 5552 5551 5551 5551 5552 5552 5553 5554 5555 5556 5557 5558 5559 5560 5561 5562 5563 5564 5565
5578 5576 5573 5571 5568 5566 5564 5562 5559 5557 5556 5554 5553 5552 5551 5550 5549 5548 5548 5547 5547 5546 5546 5545 5544 5544 5544 5544 5544 5545 5545 5546 5546 5547 5548 5549 5550 5551 5552 5553 5554 5555 5556
5569 5567 5565 5563 5560 5558 5556 5554 5552 5550 5548 5547 5545 5544 5543 5542 5541 5541 5540 5540 5539 5539 5538 5537 5537 5536 5536 5536 5537 5537 5537 5538 5538 5539 5539 5540 5541 5542 5543 5544 5545 5546 5546